This is the latest recevied weather packets stored in our database for station/object SM6LNJ-13. If no packets are shown the sender has not sent any weather packets the latest 1 day(s).
| Time | Temp. | Humidity | Pressure | Rain* | Wind** | Luminosity | Snow |
|---|---|---|---|---|---|---|---|
| 1778004350 | 12.78° C | 44% | 1426 hPa | 0 mm | 0.45 m/s, 145° | - | - |
| 1778004230 | 12.78° C | 44% | 1425.9 hPa | 0 mm | 0.45 m/s, 193° | - | - |
| 1778004111 | 12.78° C | 43% | 1425.6 hPa | 0 mm | 0.45 m/s, 191° | - | - |
| 1778003990 | 12.78° C | 42% | 1425.5 hPa | 0 mm | 0.45 m/s, 205° | - | - |
| 1778003870 | 12.78° C | 42% | 1425.6 hPa | 0 mm | 0.89 m/s, 181° | - | - |
| 1778003750 | 12.78° C | 42% | 1425.8 hPa | 0 mm | 0.45 m/s, 199° | - | - |
| 1778003630 | 12.78° C | 42% | 1425.9 hPa | 0 mm | 0.89 m/s, 206° | - | - |
| 1778003510 | 13.33° C | 42% | 1426.6 hPa | 0 mm | 0.89 m/s, 201° | - | - |
| 1778003391 | 13.33° C | 41% | 1427.5 hPa | 0 mm | 0.89 m/s, 198° | - | - |
| 1778003270 | 13.89° C | 41% | 1428.2 hPa | 0 mm | 0.45 m/s, 181° | - | - |
| 1778003150 | 13.89° C | 41% | 1428.5 hPa | 0 mm | 0.45 m/s, 179° | - | - |
| 1778003031 | 13.89° C | 40% | 1428.4 hPa | 0 mm | 0.45 m/s, 186° | - | - |
| 1778002910 | 13.89° C | 40% | 1428.4 hPa | 0 mm | 0.45 m/s, 185° | - | - |
| 1778002790 | 13.89° C | 40% | 1428.8 hPa | 0 mm | 0.45 m/s, 199° | - | - |
| 1778002670 | 14.44° C | 40% | 1429.6 hPa | 0 mm | 0.45 m/s, 191° | - | - |
| 1778002550 | 14.44° C | 41% | 1429.8 hPa | 0 mm | 0.45 m/s, 207° | - | - |
| 1778002430 | 14.44° C | 41% | 1429.7 hPa | 0 mm | 0.45 m/s, 190° | - | - |
| 1778002310 | 13.89° C | 41% | 1429 hPa | 0 mm | 0.45 m/s, 184° | - | - |
| 1778002190 | 14.44° C | 41% | 1429.3 hPa | 0 mm | 0.45 m/s, 200° | - | - |
| 1778002070 | 14.44° C | 41% | 1429.7 hPa | 0 mm | 0.45 m/s, 201° | - | - |
| 1778001950 | 14.44° C | 42% | 1429.9 hPa | 0 mm | 0.45 m/s, 201° | - | - |
| 1778001830 | 14.44° C | 42% | 1429.5 hPa | 0 mm | 0.45 m/s, 190° | - | - |
| 1778001710 | 14.44° C | 42% | 1429.2 hPa | 0 mm | 0.45 m/s, 187° | - | - |
| 1778001590 | 13.89° C | 42% | 1428.9 hPa | 0 mm | 0.45 m/s, 166° | - | - |
| 1778001470 | 13.89° C | 42% | 1427.9 hPa | 0 mm | 0.45 m/s, 167° | - | - |
* Rain latest hour (hover to see other rain measurements)
** Current wind speed in m/s (hover to see current wind gust speed)